Weather in Aznakaevo

Russia / Republic of Tatarstan     54°51′35″N   53°04′28″E
temp.,
°C
wind,
m/s
gust,
m/s
humid.,
%
clouds,
%
prec.,
mm/h
press.,
hPa
HPBL,
m
14 june, mon
mon1400:00+15se228165 0.0 101619
03:00+15se2276100 0.0 101611
06:00+18se2471100 0.0 1017141
09:00+23sse3558100 0.0 1016554
12:00+25s345217 0.0 1016923
15:00+26sse445194 0.0 10151263
18:00+22ssw227081 0.0 101520
21:00+17ssw3694100 2.4 1015107
15 june, tue
tue1500:00+17w71392100 0.9 1015278
03:00+17sse3990100 1.0 1015254
06:00+17ssw2492100 0.0 1016153
09:00+20ssw368295 0.1 1016437
12:00+25sw455987 0.0 10151025
15:00+27ssw23536 0.0 10141580
18:00+24sse367120 0.0 1014178
21:00+19ese22655 0.1 101312
16 june, wed
wed1600:00+18e347482 0.0 101255
03:00+17ese3374100 0.0 101229
06:00+20se31171100 0.0 1011279
09:00+23s51262100 0.0 1011510
12:00+24se3965100 0.0 1010434
15:00+26s68555 0.0 10091396
18:00+21ssw4108081 1.2 1008302
21:00+18sw412896 1.2 1008271
17 june, thu
thu1700:00+17sw4995100 0.0 1007191
03:00+16nw71193100 0.0 1008557
06:00+15nnw71190100 0.1 1010779
09:00+17nnw810610 0.1 1012935
12:00+19nnw795270 0.0 10131529
15:00+20nnw78506 0.0 10142045
18:00+18nnw610656 0.1 1015609
21:00+14nnw513692 0.2 1017430
18 june, fri
fri1800:00+12nnw5136825 0.0 1018298
03:00+11nnw48715 0.0 1019201
06:00+13nnw466891 0.0 1021310
09:00+15nnw456135 0.0 1022637
12:00+19nnw454875 0.0 10222123
15:00+17n466193 0.2 1023914
18:00+17n356322 0.0 1024383
21:00+12wnw337354 0.0 102527